FREGAT R/B, 41176

Orbit data source: Space-Track

FREGAT R/B, 41176 is space debris originally from a launch on Thu, 17 Dec 2015 UTC launched from the French Guiana (FRGUI). Debris objects in space refer to the collection of defunct objects orbiting the Earth. Examples of debris include non-operational satellites, rocket bodies, and fragments generated from explosions, collisions, or faulty payload assembly.

Loading next visibility...
Identifier
41176, 2015-079C
Orbit
Active
Country
Flag of CISCIS
Related business
Manufacturer
Lavochkin
Mission
Spacecraft
Bus & Motor
FREGAT, Unknown motor
Mass
1,050 kg wet, 1,050 kg dry
Launch date (UTC)
2015-12-17 (10 years ago)
Launch vehicle
Unknown
Launch site
French Guiana (FRGUI)
Object type
Payload
Rocket body
Debris
Shape & HBR
Irr, 1.6 m
Radar Cross Section
11.055 m², Large (>1 m²)

Expand to show TLE details & history
Last TLE update: 5 days ago

TLE from 5 days ago
0 FREGAT R/B
1 41176U 15079C   25299.82541307  .00000063  00000-0  00000-0 0  9997
2 41176  55.6236 111.4081 0012474 249.5980 110.2889  1.67560934 60342
Epoch: 2025-10-26T19:48Z
TLE epoch observation values (Epoch: 2025-10-26T19:48:35.689Z)
Latitude
0.00002°
Longitude
138.80791°
Altitude
23,577.484 km
Speed
3.647 km/s
True Right ascension
07h 25m 34s
True Declination
0° 00' 00"
Sunlit
Object was in daylight at epoch
Visualization orbit readout
Latitude
Unknown
Longitude
Unknown
Altitude
Unknown
Speed
Unknown
Apparent Right ascension
Unknown
Apparent Declination
Unknown
Sunlit
N/A
Visualization observer readout
Local Sidereal Time
14:21:09
Azimuth
Unknown
Elevation
Unknown
Doppler factor
Unknown
Orbital elements
Apogee altitude
23,601.603 km
Perigee altitude
23,526.903 km
Semi-major axis
29,942.39 km
Eccentricity
0.00125
Inclination
55.6236°
RAAN
111.4081°
Arg. of periapsis
249.598°
True anomaly
110.4229°
Mean anomaly
110.2889°
Eccentric anomaly
110.35591°
Mean motion
0.4189 °/min
Orbital period
859.39 mins
BSTAR
0
Loading maneuver chart data...
Computing Atmospheric mass density...
Loading historical data...
Loading historical data...
Loading historical data...
Loading historical data...
Loading historical data...
Loading historical data...
Loading historical data...
Other satellites on launch #79 in the year 2015 (2015-12-17 UTC)

Documentation

Showing up to 5 results
|